Theta_e
327 328 329 329 329 330 330 330 329 328 329 329 328 328 326 324 321 321 322 319 324 326 333 338 343 343 344 344 344 345 345 345 345
327 327 327 327 328 328 328 328 327 327 327 328 327 326 325 321 320 321 323 326 329 330 331 337 338 338 339 341 344 343 343 343 344
326 326 325 325 326 326 327 326 326 326 326 327 326 324 324 322 320 321 325 331 331 332 332 332 332 333 334 335 337 341 341 342 342
323 323 323 323 324 324 325 324 323 322 323 324 324 323 324 321 320 320 324 331 330 329 330 330 331 332 332 332 333 334 335 336 338
320 320 320 321 321 322 322 321 320 319 318 319 320 322 324 321 321 321 324 330 330 330 331 331 332 332 332 331 332 332 332 333 334
317 316 317 317 318 318 319 319 318 319 321 317 319 322 319 319 321 322 328 330 330 332 332 331 331 332 331 331 332 332 332 332 332
315 316 314 315 315 316 316 316 319 320 315 315 320 316 318 318 320 324 329 330 328 329 329 331 331 330 329 328 329 332 332 331 331
315 315 315 315 317 315 317 316 315 314 314 314 313 314 317 317 320 326 329 330 331 332 332 332 332 333 334 331 331 332 331 332 332
313 313 314 314 314 313 314 314 314 314 313 312 312 312 314 316 320 325 327 328 328 329 330 330 330 331 332 332 332 333 332 332 333
313 313 313 313 314 313 313 313 313 313 313 312 312 312 313 315 320 324 324 326 326 326 328 329 328 329 330 331 331 331 331 331 331
313 312 312 312 313 313 313 312 312 312 312 312 314 315 315 315 320 323 319 320 322 323 324 326 326 326 328 329 329 329 328 329 329
312 312 311 311 313 313 312 312 312 312 312 313 317 318 317 316 321 320 316 318 318 316 316 320 323 324 325 326 326 325 324 325 326
311 310 310 311 312 311 311 311 311 311 311 312 317 319 318 320 316 314 315 316 315 316 314 315 319 320 322 323 323 322 321 321 322
310 309 310 311 310 310 309 310 310 310 310 310 316 319 319 318 314 311 313 314 314 313 316 312 314 316 317 318 319 319 319 319 320
309 309 309 309 309 308 309 308 310 310 309 309 313 317 316 316 313 313 313 312 312 312 314 315 315 312 311 313 315 317 317 318 319
308 308 308 308 307 307 307 307 308 309 310 310 312 314 316 315 315 316 314 312 311 311 315 316 315 313 311 311 311 312 313 315 316
306 307 306 306 306 306 306 307 306 308 309 305 308 304 308 313 311 312 313 310 310 309 313 313 311 311 311 309 308 309 310 313 316
307 306 306 306 306 305 305 306 306 305 307 308 304 301 300 302 309 309 310 308 307 309 309 311 308 308 308 308 307 306 307 311 314
306 306 305 305 305 304 305 304 305 306 304 307 305 306 303 299 298 306 308 307 305 307 307 310 307 307 307 307 306 304 305 309 312
305 305 305 304 305 304 304 304 304 304 302 303 303 303 304 304 300 296 300 303 304 306 304 305 307 306 306 305 304 303 305 307 310
Wind_Speed
10 10 11 11 12 12 12 12 12 11 11 11 11 11 11 14 6 5 4 4 10 9 8 9 7 7 9 9 8 8 7 7 7
10 11 12 11 11 11 12 11 11 11 11 11 11 11 11 7 5 5 4 8 7 6 5 7 9 9 10 12 12 7 7 7 8
11 11 11 11 11 11 11 11 11 11 11 11 10 10 11 9 5 5 4 11 7 6 7 8 9 9 9 10 11 11 7 7 7
9 10 11 11 11 11 10 10 10 10 9 10 10 10 11 9 5 5 6 11 9 7 7 7 9 9 9 9 9 9 9 8 7
7 9 11 10 10 10 9 10 9 8 5 5 7 10 12 6 3 3 7 11 9 8 8 8 8 9 8 9 8 8 8 8 8
6 6 6 7 7 7 7 8 8 11 9 3 5 8 4 4 4 5 10 9 8 9 9 10 9 10 9 8 8 7 7 7 8
3 1 2 3 3 5 3 5 9 7 6 3 5 4 5 3 3 7 9 8 7 6 6 7 9 9 8 7 8 8 7 7 7
4 3 4 5 3 5 5 5 5 7 5 5 6 5 5 4 3 9 10 9 9 10 10 11 12 14 12 10 9 9 8 9 8
4 4 4 5 5 6 6 4 6 6 7 7 7 6 4 4 2 8 11 11 10 12 13 14 14 13 13 12 11 13 12 11 11
5 5 5 5 5 6 7 7 7 7 8 7 7 6 5 4 2 6 10 11 11 11 13 13 13 13 14 13 12 12 13 12 13
4 4 5 5 6 6 7 7 6 6 7 7 6 6 4 3 2 6 5 7 8 10 11 12 13 13 13 13 13 13 14 15 14
5 5 5 6 5 7 6 6 6 6 6 6 5 5 4 1 6 5 4 2 6 6 9 10 10 11 12 12 13 14 15 15 15
5 5 5 5 5 5 6 5 6 5 6 5 5 3 3 10 6 4 3 4 5 3 7 8 9 10 11 12 12 12 13 13 14
4 4 5 6 5 5 6 6 6 5 6 5 3 5 3 2 4 2 3 4 5 5 4 1 4 9 10 12 13 14 14 14 14
4 3 5 5 5 6 6 6 6 5 6 5 3 2 3 1 1 2 2 4 4 5 6 5 4 6 8 11 14 17 17 16 16
4 4 4 5 5 6 7 6 6 5 7 4 1 3 2 2 3 3 3 5 5 5 4 3 3 3 6 9 11 16 19 19 17
4 5 4 5 4 7 7 7 5 4 6 5 4 3 3 3 1 3 2 4 4 4 5 4 3 3 3 5 9 13 16 18 19
4 4 4 4 4 4 5 5 6 4 4 6 4 4 4 7 3 1 2 4 4 3 4 3 3 3 3 5 5 13 15 15 17
2 2 3 4 3 4 4 4 4 5 4 3 4 3 3 4 5 2 1 3 3 4 3 3 2 3 3 4 6 11 12 15 15
1 2 2 3 3 3 4 4 4 3 3 3 4 4 2 3 4 6 6 5 6 2 5 5 3 3 3 4 5 10 13 12 13
Wind_Direction
37 34 34 32 24 28 25 24 24 19 15 14 13 9 352 319 7 348 1 294 5 337 324 332 334 353 1 340 295 263 267 273 263
39 40 34 29 26 23 22 20 18 15 12 13 8 1 341 316 16 2 11 27 340 325 328 10 10 6 4 3 360 297 280 280 280
36 37 30 26 24 23 22 20 16 11 9 8 5 355 336 312 24 3 39 12 9 51 34 10 356 350 353 358 360 11 356 319 309
37 42 29 27 24 22 20 16 10 4 4 3 358 339 313 302 15 332 32 1 358 10 14 1 353 348 346 347 347 349 350 348 348
62 22 31 24 20 19 15 8 358 343 332 353 339 311 293 296 5 25 31 351 356 11 9 359 351 345 345 342 339 337 334 332 332
62 66 23 19 10 8 1 352 339 308 259 219 294 289 355 359 6 54 22 348 4 17 7 355 350 341 340 340 332 328 330 334 330
352 116 215 232 331 248 302 299 287 291 355 351 269 349 341 349 11 70 19 6 6 13 7 2 357 349 340 327 319 331 338 326 329
25 8 6 352 356 355 345 345 4 350 355 348 340 343 332 339 6 59 20 11 25 23 22 22 15 17 8 352 359 349 350 338 328
3 7 354 354 352 350 351 346 345 341 352 346 342 337 334 337 9 74 35 21 20 15 16 16 12 9 16 22 27 23 12 13 2
357 4 1 356 347 352 348 349 344 343 351 347 343 332 334 359 346 91 56 29 23 15 14 18 10 6 2 9 13 25 12 10 6
3 356 5 2 357 350 344 346 343 341 351 345 348 342 333 326 308 109 102 79 50 31 18 9 7 359 360 3 11 16 12 7 1
360 6 7 10 354 347 346 353 342 350 352 350 5 359 360 214 64 48 30 110 116 61 27 8 11 4 354 358 5 8 6 358 353
12 6 17 358 357 359 351 359 347 358 360 351 13 15 37 57 58 38 6 8 353 123 57 11 3 15 9 0 358 0 0 358 356
14 12 13 357 0 7 354 358 359 1 356 330 11 69 49 18 58 17 10 16 357 347 16 78 47 24 17 8 1 358 357 353 351
5 20 21 1 11 12 2 359 1 14 350 326 336 6 120 146 241 290 319 12 347 346 336 330 131 71 19 15 3 358 352 348 345
17 16 21 7 22 14 6 354 1 16 355 309 322 211 207 214 275 290 329 341 339 338 346 332 8 2 354 18 6 0 351 343 338
21 16 19 20 4 23 15 13 346 16 20 357 278 334 185 204 287 314 322 326 331 342 339 344 353 346 332 10 7 11 354 343 338
24 27 18 24 12 20 15 7 10 344 26 20 349 335 358 335 144 191 288 326 328 328 327 287 315 331 339 358 5 4 351 344 341
44 16 18 22 4 16 360 12 349 345 5 334 22 2 352 336 330 336 177 275 324 315 307 268 257 302 329 343 57 3 348 344 343
50 4 6 5 359 8 355 352 348 339 330 349 334 325 286 232 272 298 323 325 340 329 316 313 271 272 323 331 28 349 338 344 344